TimeCST,TemperatureF,Dew PointF,Humidity,Sea Level PressureIn,VisibilityMPH,Wind Direction,Wind SpeedMPH,Gust SpeedMPH,PrecipitationIn,Events,Conditions,WindDirDegrees,DateUTC
12:10 AM,64.4,55.4,73,30.29,10.0,North,9.2,-,N/A,,Mostly Cloudy,350,2012-11-24 06:10:00
12:51 AM,64.0,53.1,67,30.30,10.0,North,10.4,-,N/A,,Mostly Cloudy,350,2012-11-24 06:51:00
1:04 AM,64.4,53.6,68,30.29,10.0,North,8.1,-,N/A,,Overcast,10,2012-11-24 07:04:00
1:21 AM,64.4,53.6,68,30.29,10.0,North,9.2,-,N/A,,Mostly Cloudy,360,2012-11-24 07:21:00
1:51 AM,64.4,53.6,68,30.29,10.0,North,9.2,-,N/A,,Overcast,350,2012-11-24 07:51:00
2:51 AM,64.9,55.9,73,30.29,10.0,North,12.7,-,N/A,,Overcast,10,2012-11-24 08:51:00
3:20 AM,64.4,51.8,64,30.29,10.0,NE,16.1,-,N/A,,Overcast,40,2012-11-24 09:20:00
3:51 AM,64.0,50.0,60,30.30,10.0,NNE,17.3,27.6,N/A,,Overcast,30,2012-11-24 09:51:00
4:51 AM,63.0,46.9,56,30.30,10.0,NNE,19.6,25.3,N/A,,Overcast,20,2012-11-24 10:51:00
5:51 AM,63.0,44.1,50,30.31,10.0,NNE,19.6,-,N/A,,Overcast,30,2012-11-24 11:51:00
6:51 AM,62.1,44.1,52,30.32,10.0,NNE,13.8,-,N/A,,Overcast,20,2012-11-24 12:51:00
7:51 AM,61.0,34.0,36,30.35,10.0,NNE,18.4,-,N/A,,Mostly Cloudy,20,2012-11-24 13:51:00
8:51 AM,60.1,30.9,33,30.36,10.0,NNE,18.4,-,N/A,,Mostly Cloudy,20,2012-11-24 14:51:00
9:51 AM,62.1,30.0,30,30.37,10.0,NE,15.0,-,N/A,,Scattered Clouds,50,2012-11-24 15:51:00
10:51 AM,66.0,32.0,28,30.36,10.0,NNE,13.8,-,N/A,,Partly Cloudy,20,2012-11-24 16:51:00
11:51 AM,66.9,28.9,24,30.33,10.0,NNE,10.4,-,N/A,,Partly Cloudy,30,2012-11-24 17:51:00
12:51 PM,70.0,30.0,23,30.28,10.0,NNE,8.1,-,N/A,,Clear,30,2012-11-24 18:51:00
1:51 PM,71.1,30.0,22,30.25,10.0,ENE,6.9,-,N/A,,Partly Cloudy,70,2012-11-24 19:51:00
2:51 PM,73.0,30.9,21,30.22,10.0,Variable,5.8,-,N/A,,Partly Cloudy,0,2012-11-24 20:51:00
3:51 PM,71.1,35.1,27,30.21,10.0,East,4.6,-,N/A,,Partly Cloudy,80,2012-11-24 21:51:00
4:51 PM,69.1,36.0,30,30.20,10.0,East,9.2,-,N/A,,Partly Cloudy,100,2012-11-24 22:51:00
5:51 PM,63.0,37.9,40,30.21,10.0,ESE,9.2,-,N/A,,Partly Cloudy,110,2012-11-24 23:51:00
6:51 PM,61.0,41.0,48,30.21,10.0,East,6.9,-,N/A,,Partly Cloudy,100,2012-11-25 00:51:00
7:51 PM,55.9,37.0,49,30.22,10.0,South,4.6,-,N/A,,Clear,180,2012-11-25 01:51:00
8:51 PM,53.1,37.9,57,30.22,10.0,SSW,4.6,-,N/A,,Clear,200,2012-11-25 02:51:00
9:51 PM,52.0,37.9,59,30.21,10.0,SSW,4.6,-,N/A,,Clear,200,2012-11-25 03:51:00
10:51 PM,51.1,37.9,61,30.19,10.0,SW,3.5,-,N/A,,Clear,220,2012-11-25 04:51:00
11:51 PM,51.1,37.9,61,30.18,10.0,WSW,4.6,-,N/A,,Clear,240,2012-11-25 05:51:00